Simultaneous Nadir Overpasses (SNOs) Predictions

Prediction of SNOs between GOES-16 and NOAA-19 Satellite Orbit:

Table of predicted SNOs for the next 14.0 days since TLE Epoch: 8/23/2025
Index Date Time (GOES-16) GOES-16 Lat,Lon NOAA-19 Lat,Lon Distance(km) Time Diff (sec)
1 08/24/2025 16:37:47 0.02,-104.72 -0.77,-101.31 390.35 80
2 08/26/2025 05:11:45 -0.04,-104.68 -0.98,-108.83 472.69 80
3 08/27/2025 04:59:05 -0.03,-104.68 -0.28,-105.75 122.29 80
4 08/28/2025 04:43:46 -0.03,-104.68 0.42,-102.68 228.10 80
5 08/30/2025 17:04:50 0.05,-104.72 0.60,-107.07 268.84 80
6 08/31/2025 16:49:30 0.05,-104.72 -0.11,-104.00 81.55 80
7 09/01/2025 16:36:51 0.04,-104.71 -0.83,-100.93 431.87 80
8 09/03/2025 05:10:50 -0.06,-104.67 -0.94,-108.45 432.00 80
9 09/04/2025 04:58:11 -0.06,-104.66 -0.23,-105.38 81.88 80
10 09/05/2025 04:42:51 -0.05,-104.66 0.47,-102.31 268.25 80
